Location: Unspecified
(0.0000°N, 0.0000°E)
Time: 04:35:44
(UTC+00:00)

COSMOS 2475 (GLONASS) - Visible Passes

Search period start: 09 September 2024 00:00
Search period end: 19 September 2024 00:00
Orbit: 19070 x 19189 km, 64.9° (Epoch: 08 September)

Date Brightness Start Highest point End Pass type
(mag) Time Alt. Az. Time Alt. Az. Time Alt. Az.
09 Sep ? 16:40:31 10° NNW 19:06:51 88° W 21:34:07 10° SSE visible
10 Sep ? 14:59:05 10° N 17:40:37 64° E 19:51:01 10° SSE visible
11 Sep ? 09:02:01 10° SW 16:15:01 38° E 18:01:12 10° SSE visible
13 Sep ? 05:15:03 10° SSW 07:32:54 75° W 10:08:57 10° N visible
14 Sep ? 03:33:07 10° S 06:06:42 77° E 08:27:05 10° NNE visible
14 Sep ? 22:19:27 10° WNW 22:48:22 11° W 23:22:09 10° WSW visible
15 Sep ? 19:43:07 10° NNW 21:25:53 35° W 04:43:08 10° NE visible
16 Sep ? 17:51:44 10° NNW 20:00:32 61° W 22:42:51 10° S visible
17 Sep ? 16:08:02 10° NNW 18:34:22 88° W 21:01:38 10° SSE visible
18 Sep ? 14:26:36 10° N 17:08:08 64° E 19:18:32 10° SSE visible
